Terminal Aerodrome Forecast
Issued by NWS Upton, NY

Home | Current Version | Previous Version | Text Only | Print | Product List | Glossary On
Versions: 1 2 3 4 5 6 7 8 9 10 11 12 13 14 15 16 17 18 19 20 21 22 23 24 25 26 27 28 29 30 31 32 33 34 35 36 37 38
000
FTUS41 KOKX 180522
TAFJFK
TAF
KJFK 180522Z 1806/1912 04009KT 2SM -RA BR OVC003
     FM180800 36005KT 2SM -RA BR OVC003
     FM181300 35007KT 4SM BR BKN006 OVC010
     FM181800 33010KT 5SM BR BKN010 OVC020
     FM182100 35009KT P6SM BKN020 OVC035
     FM190700 33006KT P6SM SCT025 OVC050=

USA.gov is the U.S. government's official web portal to all federal, state and local government web resources and services.